This is the latest recevied weather packets stored in our database for station/object YO2LDK-13. If no packets are shown the sender has not sent any weather packets the latest 10 day(s).
| Time | Temp. | Humidity | Pressure | Rain* | Wind** | Luminosity | Snow |
|---|---|---|---|---|---|---|---|
| 1777439419 | 9.44° C | 51% | 1008.5 hPa | 0 mm | - | 53 W/m² | - |
| 1777439120 | 9.44° C | 52% | 1008.5 hPa | 0 mm | - | 66 W/m² | - |
| 1777438819 | 9.44° C | 53% | 1008.5 hPa | 0 mm | - | 44 W/m² | - |
| 1777438519 | 8.89° C | 53% | 1008.5 hPa | 0 mm | - | 40 W/m² | - |
| 1777438220 | 8.89° C | 53% | 1008.5 hPa | 0 mm | - | 36 W/m² | - |
| 1777437620 | 8.89° C | 54% | 1008.1 hPa | 0 mm | - | 30 W/m² | - |
| 1777437320 | 8.33° C | 54% | 1008.1 hPa | 0 mm | - | 28 W/m² | - |
| 1777437019 | 8.33° C | 54% | 1008.5 hPa | 0 mm | - | 27 W/m² | - |
| 1777425020 | 9.44° C | 61% | 1007.8 hPa | 0 mm | - | 0 W/m² | - |
| 1777424720 | 9.44° C | 62% | 1007.8 hPa | 0 mm | - | 0 W/m² | - |
| 1777424120 | 9.44° C | 62% | 1008.1 hPa | 0 mm | - | 0 W/m² | - |
| 1777422620 | 8.89° C | 64% | 1008.1 hPa | 0 mm | - | 0 W/m² | - |
| 1777421720 | 8.89° C | 63% | 1008.1 hPa | 0 mm | - | 0 W/m² | - |
| 1777420520 | 9.44° C | 63% | 1008.5 hPa | 0 mm | - | 0 W/m² | - |
| 1777417820 | 7.78° C | 70% | 1008.5 hPa | 0 mm | - | 0 W/m² | - |
| 1777413919 | 7.22° C | 75% | 1008.1 hPa | 0 mm | - | 0 W/m² | - |
| 1777413621 | 7.22° C | 76% | 1008.1 hPa | 0 mm | - | 0 W/m² | - |
| 1777412420 | 7.22° C | 77% | 1008.1 hPa | 0 mm | - | 0 W/m² | - |
| 1777411521 | 7.78° C | 75% | 1008.1 hPa | 0 mm | - | 0 W/m² | - |
| 1777411220 | 7.78° C | 74% | 1007.8 hPa | 0 mm | - | 0 W/m² | - |
| 1777410620 | 8.33° C | 74% | 1007.8 hPa | 0 mm | - | 0 W/m² | - |
| 1777410020 | 8.33° C | 73% | 1007.8 hPa | 0 mm | - | 0 W/m² | - |
| 1777409722 | 8.33° C | 72% | 1007.8 hPa | 0 mm | - | 0 W/m² | - |
| 1777408219 | 9.44° C | 68% | 1007.8 hPa | 0 mm | - | 0 W/m² | - |
| 1777407920 | 9.44° C | 67% | 1007.8 hPa | 0 mm | - | 0 W/m² | - |
* Rain latest hour (hover to see other rain measurements)
** Current wind speed in m/s (hover to see current wind gust speed)